Regional Weather Roundup
Issued by NWS

Home | Current Version | Previous Version | Graphics & Text | Print | Product List | Glossary Off
Versions: 1 2 3 4 5 6 7 8 9 10 11 12 13 14 15 16 17 18 19 20 21 22 23 24 25 26 27 28 29 30 31 32 33 34 35 36 37 38 39 40 41 42 43 44 45 46 47 48 49 50

000
ASUS43 KDMX 281408
RWRIA

WEATHER ROUNDUP FOR IOWA
NATIONAL WEATHER SERVICE DES MOINES IA
900 AM CDT WED SEP 28 2016

NOTE: "FAIR" INDICATES FEW OR NO CLOUDS BELOW 12,000 FEET WITH NO
SIGNIFICANT WEATHER AND/OR OBSTRUCTIONS TO VISIBILITY.

* - THESE STATIONS ARE NOT NWS STATIONS...THUS NOT UNDER NWS
QUALITY CONTROL.  THEY ALSO DO NOT REPORT WEATHER SUCH
AS PRECIPITATION OR FOG.

IAZ001>003-012>014-020>022-031>034-043>046-281500-
   NORTHWEST IOWA

CITY           SKY/WX    TMP DP  RH WIND       PRES   REMARKS
CARROLL *      CLOUDY    50  46  87 N14       30.10R
CHEROKEE *     CLOUDY    47  45  91 N13       30.14R
DENISON *      CLOUDY    48  45  87 N8        30.11R
LE MARS *      PTSUNNY   48  43  81 N13G21    30.17R
ORANGE CITY *  CLOUDY    46  45  93 NE7       30.16R
SHELDON *      CLOUDY    46  45  93 N10       30.14R
SIOUX CITY     SUNNY     51  45  79 N7        30.16R
SPENCER        CLOUDY    48  45  89 N10       30.15R
STORM LAKE *   CLOUDY    46  45  93 N12       30.13R
$$

IAZ055>058-069>071-079>083-090>094-281500-
   SOUTHWEST IOWA

CITY           SKY/WX    TMP DP  RH WIND       PRES   REMARKS
ATLANTIC *     MOSUNNY   48  45  87 N12G17    30.10R
AUDUBON *      CLOUDY    48  45  87 N10G16    30.11R
CLARINDA *       N/A     52  46  82 MISG      30.10R HAZE
COUNCIL BLFS * SUNNY     50  45  81 N10G17    30.11R
CRESTON *      PTSUNNY   50  45  81 N12G18    30.08R
HARLAN  *      PTSUNNY   48  45  87 N15G22    30.14R
LAMONI         CLOUDY    51  46  83 N13       30.04R
RED OAK *      SUNNY     52  46  82 N14G20    30.10R
SHENANDOAH *   SUNNY     52  46  82 N12       30.11R
$$

IAZ047>049-059>061-072>074-084-281500-
   CENTRAL IOWA

CITY           SKY/WX    TMP DP  RH WIND       PRES   REMARKS
AMES           CLOUDY    53  47  79 N15G21    30.05R
ANKENY *         N/A    N/A N/A N/A MISG        N/A
BOONE *        CLOUDY    52  45  76 N15G22    30.06R
CHARITON *       N/A     52  45  76 N17G23    30.03R
DES MOINES     CLOUDY    54  44  69 N16       30.05R
GRINNELL*      CLOUDY    52  44  74 N14G24    30.02R
KNOXVILLE *    CLOUDY    52  43  71 N12G20    30.02R
MARSHALLTOWN   PTSUNNY   54  46  74 N20G26    30.03R
NEWTON *       CLOUDY    54  45  71 N12G18    30.02R
PELLA *        PTSUNNY   53  44  72 N9G17     30.04R
PERRY *        CLOUDY    52  46  80 N13G18    30.08R
$$

IAZ004>006-015-016-023>025-035-036-281500-
   NORTH CENTRAL IOWA

CITY           SKY/WX    TMP DP  RH WIND       PRES   REMARKS
ALGONA *       CLOUDY    50  46  87 N14G20    30.11R
CLARION *      CLOUDY    52  48  87 N12G20    30.07R
ESTHERVILLE    CLOUDY    47  47 100 N12       30.13R FOG
FORT DODGE *   CLOUDY    50  41  71 N9G17     30.10R
MASON CITY     CLOUDY    52  47  83 NW15      30.07R
FOREST CITY *  CLOUDY    50  46  87 NW10G18   30.08R
WEBSTER CITY * CLOUDY    52  46  82 N15       30.06R
IOWA FALLS *   CLOUDY    53  46  76 N9G23     30.05R
$$

IAZ007>011-017>019-026>030-037>042-050>054-066-281500-
   NORTHEAST IOWA

CITY           SKY/WX    TMP DP  RH WIND       PRES   REMARKS
CEDAR RAPIDS   CLOUDY    52  47  83 N16       29.98R
CHARLES CITY * CLOUDY    52  48  87 N13G21    30.03R
CLINTON *      CLOUDY    53  47  79 N13       29.94R
DECORAH *      CLOUDY    50  50 100 NW12G17   29.99R FOG
DUBUQUE        CLOUDY    50  48  93 N13       29.95R FOG
MONTICELLO *   CLOUDY    54  46  76 N15       29.96R
OELWEIN *      CLOUDY    52  48  87 N13G26    30.01R
WATERLOO       CLOUDY    53  46  77 N16       30.01R
$$

IAZ064-065-067-068-078-281500-
   EAST CENTRAL IOWA

CITY           SKY/WX    TMP DP  RH WIND       PRES   REMARKS
DAVENPORT      CLOUDY    53  45  74 N8G16     29.95R
IOWA CITY      CLOUDY    54  45  71 N9        29.99R
MT. PLEASANT * CLOUDY    55  45  70 N16       29.98R
MUSCATINE *    CLOUDY    54  45  71 N16G22    29.97R
QUAD CITIES    CLOUDY    53  45  74 N12G21    29.94R
$$

IAZ062-063-075>077-085>089-095>099-281500-
   SOUTHEAST IOWA

CITY           SKY/WX    TMP DP  RH WIND       PRES   REMARKS
BURLINGTON     CLOUDY    53  44  71 N17       29.96R
FAIRFIELD *    CLOUDY    52  43  71 N15G22    29.99R
FORT MADISON * CLOUDY    54  45  71 N12G18    29.97R
KEOKUK *       CLOUDY    54  45  71 N14       29.96R
OSKALOOSA *    CLOUDY    53  44  72 N16G22    30.01R
OTTUMWA        CLOUDY   N/A N/A N/A N14       30.00R
WASHINGTON *     N/A    N/A N/A N/A MISG        N/A
$$

ABBREVIATIONS USED IN REMARKS
   TC - TEMPERATURES IN CELSIUS
  WCI - WIND CHILL INDEX
   HX - HEAT INDEX
  VSB - VISIBILITY
$$





USA.gov is the U.S. government's official web portal to all federal, state and local government web resources and services.